{"data":{"norad_id":28899,"intl_designator":"2005-044A","name":"INMARSAT 4-F2 (SOUTHPA*)","alt_names":[],"object_type":"PAYLOAD","status":"ACTIVE","operator":null,"country":"IM","launch_date":"2005-11-08","launch_site_code":"SEAL","launch_vehicle":null,"mission":null,"orbit_class":"UNKNOWN","rcs_meters":4.4668,"size_class":null,"mass_kg":null,"dimensions":null,"purposes":["comms","nav"],"wikipedia_slug":null,"has_3d_model":false,"image_url":null,"decayed_at":null,"tle_current":{"epoch":"2026-05-24T23:17:30.340320Z","epoch_age_seconds":74069,"freshness":"FRESH","line1":"1 28899U 05044A   26144.97049005 -.00000264  00000+0  00000+0 0  9991","line2":"2 28899   5.0664  43.7388 0003099  17.9205 313.7656  1.00271591 75286","mean_motion":1.00271591,"eccentricity":0.0003099,"inclination_deg":5.0664,"raan_deg":43.7388,"arg_perigee_deg":17.9205,"mean_anomaly_deg":313.7656,"bstar":0,"rev_number":7528,"period_min":1436.0996825113,"perigee_km":35773.582479232,"apogee_km":35799.71621381,"semimajor_km":42164.786346521,"source":"CELESTRAK","updated_at":"2026-05-25T13:38:24.337188Z"}}}